Location: Jackson
(42.2460°N, 84.4010°W)
Time: 19:03:37
(UTC-04:00)

Courier 1B Rocket - Pass Details

Date: 12 February 2026
Orbit: 920 x 1201 km, 28.2° (Epoch: 12 March)

Event Time Altitude Azimuth Distance (km) Brightness Sun altitude
Rises 20:28:30 0° 203° (SSW) 3,595 8.2 -26.8°
Enters shadow 20:32:43 - 175° (S) 2,806 7.3 -27.6°
Reaches altitude 10° 20:33:50 10° 166° (SSE) 2,716 - -27.8°
Maximum altitude 20:35:05 11° 154° (SSE) 2,692 - -28.0°
Drops below altitude 10° 20:36:22 10° 143° (SE) 2,753 - -28.2°
Sets 20:41:58 0° 107° (ESE) 3,794 - -29.3°
